Weather History for North Platte, NE

Change the Weather History Date:

Monday, April 7, 2014

  Actual Average Record
Temperature  
Mean Temperature 41 °F 45 °F  
Max Temperature 55 °F 59 °F 88 °F (1988)
Min Temperature 26 °F 30 °F 8 °F (2007)
Degree Days  
Heating Degree Days 24 20  
Month to date heating degree days 168 149  
Since 1 July heating degree days 6233 6014  
Cooling Degree Days 0 0  
Month to date cooling degree days 0 0  
Year to date cooling degree days 0 0  
Moisture  
Dew Point 32 °F    
Average Humidity 67    
Maximum Humidity 96    
Minimum Humidity 38    
Precipitation  
Precipitation T in 0.06 in 1.58 in (1875)
Month to date precipitation T 0.38  
Year to date precipitation 1.84 2.27  
Snow  
Snow 0.00 in 0.20 in 6.20 in (1897)
Month to date snowfall T 1.1  
Since 1 July snowfall 28.7 26.4  
Snow Depth 0.00 in    
Sea Level Pressure  
Sea Level Pressure 30.00 in    
Wind  
Wind Speed 15 mph (NNW)    
Max Wind Speed 36 mph    
Max Gust Speed 48 mph    
Visibility 10 miles    
Events Rain    
T = Trace of Precipitation, MM = Missing Value Source: NWS Daily Summary

Daily Weather History Graph

Daily Weather History Graph

Search for Another Location

Airport:

Trip Planner

Search our weather history database for the weather conditions in past years. The results will help you decide how hot, cold, wet, or windy it might be!

Date:

Astronomy

Apr. 07, 2014 Rise Set
Actual Time 7:16 AM CDT 8:14 PM CDT
Civil Twilight 6:47 AM CDT 8:42 PM CDT
Nautical Twilight 6:14 AM CDT 9:15 PM CDT
Astronomical Twilight 5:39 AM CDT 9:50 PM CDT
Moon 1:12 PM CDT (4/7) 2:54 AM CDT (4/7)
Length of Visible Light 13h 54m
Length of Day
12h 58m
First Quarter, 53% of the Moon is Illuminated
Apr 7
First Quarter
Apr 15
Full
Apr 22
Last Quarter
Apr 29
New
May 6
First Quarter

Hourly Weather History & Observations

Time (CDT) Temp. Windchill Dew Point Humidity Pressure Visibility Wind Dir Wind Speed Gust Speed Precip Events Conditions
12:53 AM 37.0 °F 33.3 °F 33.1 °F 86% 29.90 in 10.0 mi North 4.6 mph - N/A   Scattered Clouds
1:53 AM 42.1 °F 39.2 °F 37.9 °F 85% 29.90 in 10.0 mi WNW 4.6 mph - N/A   Overcast
2:53 AM 37.0 °F 32.4 °F 35.1 °F 93% 29.89 in 10.0 mi NW 5.8 mph - N/A   Scattered Clouds
3:53 AM 33.1 °F 28.7 °F 32.0 °F 96% 29.89 in 10.0 mi NW 4.6 mph - N/A   Clear
4:53 AM 32.0 °F 25.6 °F 30.9 °F 96% 29.89 in 10.0 mi NW 6.9 mph - N/A   Clear
5:53 AM 28.9 °F 21.9 °F 27.0 °F 92% 29.90 in 10.0 mi NW 6.9 mph - N/A   Clear
6:53 AM 28.9 °F 20.4 °F 27.0 °F 92% 29.94 in 10.0 mi WNW 9.2 mph - N/A   Clear
7:53 AM 30.9 °F 26.2 °F 28.9 °F 92% 29.96 in 10.0 mi NNW 4.6 mph - N/A   Mostly Cloudy
8:53 AM 39.9 °F 34.5 °F 36.0 °F 86% 29.97 in 10.0 mi WNW 8.1 mph - N/A   Overcast
9:38 AM 44.1 °F 35.4 °F 37.9 °F 79% 29.96 in 10.0 mi NNW 21.9 mph 29.9 mph N/A   Mostly Cloudy
9:53 AM 46.0 °F 37.2 °F 37.0 °F 71% 29.97 in 10.0 mi North 26.5 mph 36.8 mph N/A   Mostly Cloudy
10:53 AM 48.9 °F - 34.0 °F 56% 30.00 in 10.0 mi NNW 27.6 mph 40.3 mph N/A   Mostly Cloudy
11:53 AM 52.0 °F - 33.1 °F 49% 30.01 in 10.0 mi NNW 28.8 mph 36.8 mph 0.00 in   Mostly Cloudy
12:53 PM 51.1 °F - 33.1 °F 50% 30.03 in 10.0 mi NNW 25.3 mph 32.2 mph N/A   Mostly Cloudy
1:53 PM 53.1 °F - 32.0 °F 45% 30.01 in 10.0 mi NNW 26.5 mph 35.7 mph N/A   Scattered Clouds
2:53 PM 50.0 °F - 35.1 °F 57% 30.01 in 10.0 mi North 17.3 mph 38.0 mph 0.00 in Rain Light Rain
3:53 PM 46.9 °F - 36.0 °F 66% 30.04 in 10.0 mi North 32.2 mph 41.4 mph 0.00 in Rain Light Rain
4:53 PM 53.1 °F - 28.0 °F 38% 30.02 in 10.0 mi North 33.4 mph 40.3 mph 0.00 in   Partly Cloudy
5:53 PM 53.1 °F - 28.9 °F 40% 30.04 in 10.0 mi North 24.2 mph 32.2 mph N/A   Partly Cloudy
6:53 PM 50.0 °F - 28.9 °F 44% 30.06 in 10.0 mi North 21.9 mph 32.2 mph 0.00 in   Mostly Cloudy
7:53 PM 46.0 °F 40.2 °F 28.0 °F 50% 30.09 in 10.0 mi North 12.7 mph - N/A   Partly Cloudy
8:53 PM 41.0 °F 35.8 °F 28.9 °F 62% 30.11 in 10.0 mi North 8.1 mph - N/A   Clear
9:53 PM 37.0 °F 33.3 °F 28.0 °F 70% 30.13 in 10.0 mi NW 4.6 mph - N/A   Clear
10:53 PM 30.0 °F 24.1 °F 25.0 °F 82% 30.14 in 10.0 mi WNW 5.8 mph - N/A   Clear
11:53 PM 30.0 °F 26.5 °F 26.1 °F 85% 30.13 in 10.0 mi NW 3.5 mph - N/A   Clear